Retour au catalogue

DELTA 1 DEB

ActifPO
NORAD 37659·DEBRIS·🇺🇸 United States

Lancé Mar 5, 1978 depuis Vandenberg Space Force Base

Loading…

Prochains Passages (prochaines 24 heures)

TLE

FraisSource: Space-Track

Époque: Sep 13, 2026, 06:28 UTC

1 37659U 78026JW  26256.26966271  .00000094  00000-0  12851-3 0  9996
2 37659  98.7491 250.9376 0157144  81.9022 279.9922 13.74110062102026

Suivez DELTA 1 DEB en temps réel avec AllMySat

Download on the App Store